Tracking 25693 objects as of 1-Jul-2022
HD Live streaming from Space Station
objects crossing your sky now

ORCA-1

Track ORCA-1 now!
10-day predictions


NORAD ID: 44418
Int'l Code: 2019-022H
Perigee: 423.6 km
Apogee: 437.1 km
Inclination: 51.6 °
Period: 93.0 minutes
Semi major axis: 6801 km
RCS: Unknown
Launch date: April 17, 2019
Source: United States (US)
Launch site: WALLOPS ISLAND (WLPIS)
aabbcc
Your satellite tracking list
Your tracking list is empty




NASA's NSSDC Master Catalog

Two Line Element Set (TLE):
1 44418U 19022H   22181.65887804  .00021677  00000-0  41705-3 0  9998
2 44418  51.6417  32.4038 0009957 124.3224 235.8708 15.47792922162454
Source of the keplerian elements: AFSPC